Glasgow, KY

11:56 PM CST on February 08, 2016 (GMT -0600)
Glasgow Municipal

Weather History for KGLW - October, 2013

Change the Weather History Date:

Monday, October 14, 2013

  Actual Average Record
Temperature  
Mean Temperature 60 °F -  
Max Temperature 68 °F 71 °F 82 °F (1960)
Min Temperature 52 °F 45 °F 28 °F (1979)
Degree Days  
Heating Degree Days 5    
Growing Degree Days 10 (Base 50)    
Moisture  
Dew Point 54 °F    
Average Humidity 85    
Maximum Humidity 100    
Minimum Humidity 67    
Precipitation  
Precipitation 0.00 in - - ()
Sea Level Pressure  
Sea Level Pressure 30.22 in    
Wind  
Wind Speed 2 mph (ENE)    
Max Wind Speed 9 mph    
Max Gust Speed -    
Visibility 7 miles    
Events      
Averages and records for this station are not official NWS values.
T = Trace of Precipitation, MM = Missing Value Source: NWS Daily Summary

Daily Weather History Graph

Daily Weather History Graph

Search for Another Location

Airport or City:

Trip Planner

Search our weather history database for the weather conditions in past years. The results will help you decide how hot, cold, wet, or windy it might be!

Date:

Astronomy

Oct. 14, 2013 Rise Set
Actual Time 6:50 AM CDT 6:08 PM CDT
Civil Twilight 6:24 AM CDT 6:34 PM CDT
Nautical Twilight 5:54 AM CDT 7:04 PM CDT
Astronomical Twilight 5:24 AM CDT 7:34 PM CDT
Moon 3:31 PM CDT (10/14) 2:12 AM CDT (10/14)
Length of Visible Light 12h 09m
Length of Day
11h 17m
Waxing Gibbous, 79% of the Moon is Illuminated
Oct 14
Waxing Gibbous
Oct 18
Full
Oct 26
Last Quarter
Nov 3
New
Nov 9
First Quarter

Hourly Weather History & Observations

Time (CDT) Temp. Dew Point Humidity Pressure Visibility Wind Dir Wind Speed Gust Speed Precip Events Conditions
12:15 AM 60.6 °F 50.2 °F 68% 30.24 in 10.0 mi NNE 3.5 mph - N/A   Clear
12:35 AM 60.4 °F 49.5 °F 67% 30.24 in 10.0 mi NNE 3.5 mph - N/A   Clear
12:55 AM 59.7 °F 49.3 °F 68% 30.24 in 10.0 mi NNE 3.5 mph - N/A   Clear
1:15 AM 59.0 °F 49.3 °F 70% 30.24 in 10.0 mi Calm Calm - N/A   Clear
1:35 AM 58.5 °F 48.7 °F 70% 30.25 in 10.0 mi Calm Calm - N/A   Clear
1:55 AM 57.9 °F 48.4 °F 71% 30.26 in 10.0 mi NNE 3.5 mph - N/A   Clear
2:15 AM 57.2 °F 48.4 °F 72% 30.26 in 10.0 mi Calm Calm - N/A   Clear
2:35 AM 57.0 °F 48.4 °F 73% 30.26 in 10.0 mi Calm Calm - N/A   Clear
2:55 AM 56.1 °F 48.4 °F 75% 30.25 in 10.0 mi Calm Calm - N/A   Clear
3:15 AM 53.2 °F 48.2 °F 83% 30.25 in 10.0 mi Calm Calm - N/A   Clear
3:35 AM 52.3 °F 48.2 °F 86% 30.25 in 10.0 mi Calm Calm - N/A   Clear
3:55 AM 52.5 °F 48.2 °F 85% 30.25 in 10.0 mi Calm Calm - N/A   Clear
4:15 AM 52.3 °F 48.2 °F 86% 30.26 in 10.0 mi Calm Calm - N/A   Clear
4:35 AM 52.7 °F 48.2 °F 85% 30.26 in 10.0 mi Calm Calm - N/A   Clear
4:55 AM 52.7 °F 48.2 °F 85% 30.26 in 10.0 mi Calm Calm - N/A   Clear
5:15 AM 54.1 °F 48.4 °F 81% 30.26 in 10.0 mi Calm Calm - N/A   Clear
5:35 AM 54.1 °F 48.2 °F 80% 30.26 in 10.0 mi Calm Calm - N/A   Clear
5:55 AM 54.0 °F 48.4 °F 81% 30.27 in 10.0 mi Calm Calm - N/A   Clear
6:15 AM 53.6 °F 48.4 °F 82% 30.27 in 10.0 mi Calm Calm - N/A   Clear
6:35 AM 53.6 °F 48.6 °F 83% 30.27 in 10.0 mi Calm Calm - N/A   Clear
6:55 AM 53.2 °F 48.7 °F 85% 30.27 in 10.0 mi Calm Calm - N/A   Clear
7:15 AM 53.1 °F 48.9 °F 86% 30.27 in 10.0 mi Calm Calm - N/A   Clear
7:35 AM 53.4 °F 49.3 °F 86% 30.27 in 10.0 mi Calm Calm - N/A   Clear
7:55 AM 55.0 °F 50.4 °F 84% 30.28 in 10.0 mi ENE 3.5 mph - N/A   Clear
8:15 AM 56.5 °F 50.9 °F 82% 30.28 in 10.0 mi NNE 3.5 mph - N/A   Clear
8:35 AM 57.4 °F 51.6 °F 81% 30.27 in 10.0 mi ENE 8.1 mph - N/A   Clear
8:55 AM 59.0 °F 53.6 °F 82% 30.28 in 7.0 mi ENE 6.9 mph - N/A   Clear
9:15 AM 60.6 °F 54.5 °F 80% 30.28 in 10.0 mi East 9.2 mph - N/A   Clear
9:35 AM 61.2 °F 55.4 °F 81% 30.28 in 5.0 mi ENE 5.8 mph - N/A   Haze
9:55 AM 60.1 °F 55.8 °F 86% 30.28 in 5.0 mi ENE 3.5 mph - N/A   Overcast
10:15 AM 59.9 °F 57.4 °F 91% 30.27 in 3.0 mi East 9.2 mph - N/A   Overcast
10:35 AM 60.1 °F 60.1 °F 100% 30.27 in 4.0 mi East 4.6 mph - N/A   Overcast
10:55 AM 61.2 °F 60.1 °F 96% 30.27 in 4.0 mi NE 3.5 mph - N/A   Overcast
11:15 AM 62.1 °F 59.2 °F 90% 30.27 in 4.0 mi ENE 3.5 mph - N/A   Overcast
11:35 AM 62.8 °F 58.5 °F 86% 30.27 in 5.0 mi NE 3.5 mph - N/A   Haze
11:55 AM 63.3 °F 58.3 °F 84% 30.26 in 5.0 mi NNE 4.6 mph - N/A   Haze
12:15 PM 63.9 °F 58.1 °F 81% 30.26 in 5.0 mi ENE 4.6 mph - N/A   Haze
12:35 PM 64.4 °F 58.1 °F 80% 30.24 in 7.0 mi ENE 4.6 mph - N/A   Overcast
12:55 PM 65.1 °F 58.1 °F 78% 30.24 in 5.0 mi NE 4.6 mph - N/A   Haze
1:15 PM 65.8 °F 58.3 °F 77% 30.23 in 7.0 mi Calm Calm - N/A   Overcast
1:35 PM 66.4 °F 58.6 °F 76% 30.21 in 5.0 mi East 6.9 mph - N/A   Haze
1:55 PM 66.0 °F 58.8 °F 78% 30.20 in 7.0 mi East 5.8 mph - N/A   Overcast
2:15 PM 66.6 °F 59.0 °F 77% 30.19 in 5.0 mi ESE 5.8 mph - N/A   Haze
2:35 PM 67.1 °F 59.0 °F 75% 30.19 in 5.0 mi East 5.8 mph - N/A   Haze
3:35 PM 68.4 °F 59.2 °F 72% 30.18 in 7.0 mi East 5.8 mph - N/A   Mostly Cloudy
3:55 PM 68.9 °F 59.2 °F 71% 30.17 in 7.0 mi East 6.9 mph - N/A   Mostly Cloudy
4:15 PM 68.9 °F 59.2 °F 71% 30.17 in 7.0 mi East 8.1 mph - N/A   Scattered Clouds
4:35 PM 68.4 °F 58.8 °F 71% 30.18 in 7.0 mi East 5.8 mph - N/A   Scattered Clouds
4:55 PM 66.7 °F 58.8 °F 76% 30.17 in 7.0 mi East 6.9 mph - N/A   Scattered Clouds
5:15 PM 65.8 °F 58.8 °F 78% 30.17 in 7.0 mi East 4.6 mph - N/A   Clear
5:35 PM 65.3 °F 58.6 °F 79% 30.17 in 7.0 mi Calm Calm - N/A   Clear
5:55 PM 64.4 °F 58.5 °F 81% 30.17 in 7.0 mi Calm Calm - N/A   Clear
6:15 PM 62.8 °F 58.1 °F 85% 30.17 in 5.0 mi Calm Calm - N/A   Clear
6:35 PM 60.3 °F 59.5 °F 97% 30.16 in 5.0 mi Calm Calm - N/A   Clear
6:55 PM 59.2 °F 59.2 °F 100% 30.16 in 5.0 mi Calm Calm - N/A   Clear
7:15 PM 57.9 °F 57.9 °F 100% 30.16 in 4.0 mi Calm Calm - N/A   Clear
7:35 PM 58.1 °F 58.1 °F 100% 30.15 in 4.0 mi Calm Calm - N/A   Clear
7:55 PM 57.4 °F 57.4 °F 100% 30.15 in 3.0 mi Calm Calm - N/A   Clear
8:15 PM 56.8 °F 56.8 °F 100% 30.16 in 3.0 mi Calm Calm - N/A   Clear
8:35 PM 56.5 °F 56.5 °F 100% 30.16 in 3.0 mi Calm Calm - N/A   Clear
8:55 PM 56.7 °F 56.7 °F 100% 30.16 in 3.0 mi Calm Calm - N/A   Clear
9:15 PM 57.0 °F 57.0 °F 100% 30.17 in 2.0 mi Calm Calm - N/A   Clear
9:35 PM 56.5 °F 56.5 °F 100% 30.17 in 0.8 mi Calm Calm - N/A   Mist
9:55 PM 56.1 °F 56.1 °F 100% 30.16 in 1.2 mi Calm Calm - N/A   Mist
10:15 PM 55.9 °F 55.9 °F 100% 30.16 in 1.5 mi Calm Calm - N/A   Mist
10:35 PM 56.1 °F 56.1 °F 100% 30.16 in 1.5 mi Calm Calm - N/A   Mist
10:55 PM 55.6 °F 55.6 °F 100% 30.16 in 2.0 mi Calm Calm - N/A   Clear
11:15 PM 55.6 °F 55.6 °F 100% 30.15 in 2.0 mi Calm Calm - N/A   Clear
11:35 PM 56.1 °F 56.1 °F 100% 30.14 in 2.0 mi Calm Calm - N/A   Clear
11:55 PM 56.5 °F 56.5 °F 100% 30.14 in 2.0 mi Calm Calm - N/A   Clear